Waarnemingen

Advertentie
Mijn weer
Edinburgh/Gogarbank, Groot Brittannië (3166): temperatuur & dauwpunt: 11.01.2021 03:00:00 - 17.01.2021 03:00:00 (GMT)Edinburgh/Gogarbank, Groot Brittannië (3166): temperatuur -20cm & temperatuur -100cm: 11.01.2021 03:00:00 - 17.01.2021 03:00:00 (GMT)Edinburgh/Gogarbank, Groot Brittannië (3166): windsnelheid & windstoten: 11.01.2021 03:00:00 - 17.01.2021 03:00:00 (GMT)Edinburgh/Gogarbank, Groot Brittannië (3166): windrichting: 11.01.2021 03:00:00 - 17.01.2021 03:00:00 (GMT)Edinburgh/Gogarbank, Groot Brittannië (3166): luchtdruk: 11.01.2021 03:00:00 - 17.01.2021 03:00:00 (GMT)Edinburgh/Gogarbank, Groot Brittannië (3166): zicht: 11.01.2021 03:00:00 - 17.01.2021 03:00:00 (GMT)Edinburgh/Gogarbank, Groot Brittannië (3166): Zonneschijnduur: 11.01.2021 03:00:00 - 17.01.2021 03:00:00 (GMT)Edinburgh/Gogarbank, Groot Brittannië (3166): neerslag: 11.01.2021 03:00:00 - 17.01.2021 03:00:00 (GMT)
Datum & Tijd tt [°C] td [°C] tt -20cm [°C] tt -100cm [°C] ff [km/u] ff [kn] fx [km/u] fx [kn] dd ppp [hPa] vv [km] sd [min] rr [mm]
17.01.2021 03:00:00 3,6 1,6 - - 22 12 - - WZW 1014,2 35 0 0,0
17.01.2021 02:00:00 3,8 1,4 - - 22 12 - - WZW 1013,7 35 0 0,0
17.01.2021 01:00:00 4,1 1,3 - - 24 13 - - WZW 1013,1 45 0 0,0
17.01.2021 00:00:00 4,2 1,4 - - 21 11 - - WZW 1012,7 40 - 0,0
16.01.2021 23:00:00 4,6 1,6 - - 22 12 - - WZW 1012,1 35 0 0,0
16.01.2021 22:00:00 4,8 1,9 - - 21 11 - - WZW 1011,6 30 0 0,0
16.01.2021 21:00:00 4,6 1,9 - - 22 12 - - WZW 1010,9 29 0 0,0
16.01.2021 20:00:00 4,9 1,7 - - 24 13 - - WZW 1010,3 26 0 0,0
16.01.2021 19:00:00 5,3 1,6 - - 26 14 - - WZW 1010,1 29 0 0,0
16.01.2021 18:00:00 5,7 2,1 - - 21 11 - - WZW 1009,7 23 0 0,0
16.01.2021 17:00:00 6,3 2,9 - - 29 16 50 27 W 1008,7 27 0 0,0
16.01.2021 16:00:00 7,0 3,7 - - 31 17 57 31 W 1007,9 29 12 0,0
16.01.2021 15:00:00 7,9 4,2 - - 31 17 57 31 W 1006,7 30 18 0,0
16.01.2021 14:00:00 8,4 5,0 - - 34 18 57 31 W 1006,0 30 6 0,0
16.01.2021 13:00:00 8,7 5,8 - - 37 20 52 28 W 1005,4 28 12 0,0
16.01.2021 12:00:00 8,5 6,3 - - 34 18 54 29 W 1005,0 40 12 0,0
16.01.2021 11:00:00 7,8 6,2 - - 26 14 46 25 ZW 1005,0 15 6 0,0
16.01.2021 10:00:00 7,3 5,0 - - 22 12 - - WZW 1005,2 35 0 0,0
16.01.2021 09:00:00 6,7 4,7 3,0 5,2 21 11 - - ZW 1005,5 40 0 0,0
16.01.2021 08:00:00 5,4 3,4 - - 21 11 50 27 ZW 1005,4 70 0 0,0
16.01.2021 07:00:00 5,4 2,8 - - 29 16 54 29 ZZW 1005,4 75 0 0,2
16.01.2021 06:00:00 5,1 2,6 - - 26 14 48 26 ZZW 1005,3 35 0 0,4
16.01.2021 05:00:00 4,1 2,3 - - 11 6 - - Z 1006,6 8 0 1,4
16.01.2021 04:00:00 3,6 1,7 - - 15 8 - - Z 1008,8 7 0 0,8
16.01.2021 03:00:00 3,1 1,2 - - 18 10 - - ZO 1011,4 5 0 0,8
16.01.2021 02:00:00 2,2 1,5 - - 4 2 - - O 1013,5 6 0 0,4
16.01.2021 01:00:00 1,7 0,4 - - 5 3 - - NNO 1015,2 9 0 0,6
16.01.2021 00:00:00 2,1 0,2 - - 11 6 - - O 1016,7 9 - 0,2
15.01.2021 23:00:00 1,8 -1,2 - - 8 4 - - O 1018,6 40 0 0,0
15.01.2021 22:00:00 1,7 -1,7 - - 13 7 - - OZO 1019,9 50 0 0,0
15.01.2021 21:00:00 0,0 -1,3 - - 9 5 - - OZO 1021,7 18 0 0,0
15.01.2021 20:00:00 -0,1 -1,5 - - 2 1 - - ZW 1023,1 21 0 0,0
15.01.2021 19:00:00 -0,2 -1,7 - - 5 3 - - O 1023,7 24 0 0,0
15.01.2021 18:00:00 -0,1 -1,6 - - 4 2 - - OZO 1024,6 21 0 0,0
15.01.2021 17:00:00 0,2 -1,7 - - 2 1 - - ZZO 1025,3 18 0 0,0
15.01.2021 16:00:00 1,8 -1,2 - - 2 1 - - ZW 1025,7 30 0 0,0
15.01.2021 15:00:00 3,2 -0,3 - - 8 4 - - ZZW 1026,1 40 0 0,0
15.01.2021 14:00:00 3,2 0,6 - - 4 2 - - OZO 1027,0 35 0 0,0
15.01.2021 13:00:00 3,0 0,4 - - 8 4 - - ZW 1027,9 45 0 0,0
15.01.2021 12:00:00 3,0 0,6 - - 11 6 - - ZW 1028,5 40 0 0,0
15.01.2021 11:00:00 3,0 1,0 - - 11 6 - - ZZW 1028,8 55 0 0,0
15.01.2021 10:00:00 2,8 0,8 - - 13 7 - - ZZW 1028,5 65 0 0,0
15.01.2021 09:00:00 2,1 0,7 3,0 5,2 9 5 - - ZW 1028,6 50 0 0,0
15.01.2021 08:00:00 1,6 0,5 - - 9 5 - - WZW 1028,3 35 0 0,0
15.01.2021 07:00:00 1,2 0,3 - - 5 3 - - ZW 1028,0 20 0 0,0
15.01.2021 06:00:00 1,1 0,2 - - 5 3 - - ZW 1028,0 22 0 0,0
15.01.2021 05:00:00 1,2 0,2 - - 9 5 - - ZW 1028,0 26 0 0,0
15.01.2021 04:00:00 0,7 0,3 - - 8 4 - - ZW 1028,0 20 0 0,0
15.01.2021 03:00:00 -0,3 -0,6 - - 0 0 - - N 1027,9 14 0 0,0
15.01.2021 02:00:00 -1,6 -2,0 - - 0 0 - - N 1027,5 8 0 0,0
15.01.2021 01:00:00 -0,8 -1,2 - - 5 3 - - ZW 1027,2 14 0 0,0
15.01.2021 00:00:00 -0,4 -0,9 - - 5 3 - - NW 1027,1 10 - 0,0
14.01.2021 23:00:00 -0,1 -0,6 - - 4 2 - - W 1026,7 15 0 0,0
14.01.2021 22:00:00 0,4 -0,2 - - 4 2 - - ZZW 1026,4 19 0 0,0
14.01.2021 21:00:00 1,0 0,6 - - 5 3 - - ZW 1026,0 15 0 0,0
14.01.2021 20:00:00 0,9 0,5 - - 4 2 - - ZW 1025,3 7 0 0,0
14.01.2021 19:00:00 1,1 0,6 - - 2 1 - - ZZO 1024,9 4,2 0 0,0
14.01.2021 18:00:00 1,3 0,7 - - 2 1 - - W 1024,5 6 0 0,2
14.01.2021 17:00:00 2,1 1,4 - - 2 1 - - WZW 1023,9 7 0 0,0
14.01.2021 16:00:00 2,3 1,3 - - 2 1 - - O 1022,8 28 0 0,0
14.01.2021 15:00:00 2,6 1,5 - - 8 4 - - O 1022,0 25 0 0,0
14.01.2021 14:00:00 2,8 1,6 - - 8 4 - - O 1021,4 30 0 0,0
14.01.2021 13:00:00 2,7 1,5 - - 5 3 - - ONO 1020,7 75 0 0,2
14.01.2021 12:00:00 2,6 1,6 - - 9 5 - - O 1020,3 50 0 0,0
14.01.2021 11:00:00 2,5 1,6 - - 8 4 - - O 1019,6 70 0 0,0
14.01.2021 10:00:00 2,2 1,8 - - 9 5 - - O 1018,6 26 0 0,4
14.01.2021 09:00:00 1,7 1,3 3,0 5,4 11 6 - - ONO 1017,7 18 0 0,4
14.01.2021 08:00:00 1,2 0,7 - - 11 6 - - O 1016,8 7 0 0,8
14.01.2021 07:00:00 1,0 0,6 - - 9 5 - - ONO 1016,3 8 0 1,4
14.01.2021 06:00:00 1,6 1,0 - - 13 7 - - ONO 1015,8 5 0 1,2
14.01.2021 05:00:00 1,8 1,1 - - 15 8 - - ONO 1015,0 9 0 0,6
14.01.2021 04:00:00 1,8 1,1 - - 15 8 - - O 1014,9 10 0 0,4
14.01.2021 03:00:00 1,7 1,0 - - 11 6 - - O 1015,0 14 0 0,6
14.01.2021 02:00:00 1,6 0,8 - - 15 8 - - O 1014,9 9 0 0,4
14.01.2021 01:00:00 1,6 0,8 - - 15 8 - - ONO 1015,1 10 0 0,4
14.01.2021 00:00:00 1,6 0,8 - - 15 8 - - O 1015,3 15 - 0,2
13.01.2021 23:00:00 1,4 0,7 - - 13 7 - - O 1015,6 13 0 0,6
13.01.2021 22:00:00 1,3 0,6 - - 13 7 - - O 1015,8 20 0 0,2
13.01.2021 21:00:00 1,6 0,7 - - 11 6 - - O 1015,8 14 0 1,0
13.01.2021 20:00:00 1,6 1,0 - - 13 7 - - O 1015,8 11 0 1,2
13.01.2021 19:00:00 1,2 0,7 - - 9 5 - - O 1016,1 7 0 2,0
13.01.2021 18:00:00 0,7 0,4 - - 8 4 - - O 1016,1 6 0 0,0
13.01.2021 17:00:00 0,4 -0,1 - - 2 1 - - NW 1016,4 1,2 0 0,0
13.01.2021 16:00:00 0,5 -0,1 - - 0 0 - - N 1016,3 0,9 0 0,2
13.01.2021 15:00:00 0,5 -0,2 - - 4 2 - - N 1016,6 6 0 0,2
13.01.2021 14:00:00 0,8 0,0 - - 0 0 - - N 1016,5 9 0 0,4
13.01.2021 13:00:00 0,6 -0,3 - - 2 1 - - NW 1017,2 9 0 0,0
13.01.2021 12:00:00 0,3 -0,5 - - 0 0 - - N 1017,5 13 0 0,0
13.01.2021 11:00:00 0,1 -0,6 - - 0 0 - - N 1017,5 30 0 0,0
13.01.2021 10:00:00 -0,3 -0,9 - - 2 1 - - ZZO 1017,3 26 0 0,0
13.01.2021 09:00:00 -1,4 -2,0 3,4 5,4 0 0 - - N 1017,3 30 0 0,0
13.01.2021 08:00:00 -1,5 -2,4 - - 4 2 - - WZW 1017,1 30 0 0,0
13.01.2021 07:00:00 -1,5 -2,3 - - 0 0 - - N 1017,0 35 0 0,0
13.01.2021 06:00:00 -1,2 -2,1 - - 0 0 - - N 1017,0 35 0 0,0
13.01.2021 05:00:00 -0,9 -1,9 - - 2 1 - - Z 1017,3 45 0 0,0
13.01.2021 04:00:00 -1,1 -1,9 - - 2 1 - - WZW 1017,4 40 0 0,0
13.01.2021 03:00:00 -1,2 -2,2 - - 0 0 - - N 1017,7 35 0 0,0
13.01.2021 02:00:00 -1,6 -2,5 - - 5 3 - - W 1018,0 40 0 0,0
13.01.2021 01:00:00 -1,6 -2,3 - - 2 1 - - NNO 1018,3 27 0 0,0
13.01.2021 00:00:00 -1,6 -2,3 - - 0 0 - - N 1018,8 30 - 0,0
12.01.2021 23:00:00 -2,1 -2,9 - - 0 0 - - N 1018,8 27 0 0,0
12.01.2021 22:00:00 -1,7 -2,5 - - 4 2 - - Z 1018,5 45 0 0,0
12.01.2021 21:00:00 -1,7 -2,9 - - 4 2 - - Z 1018,5 45 0 0,0
12.01.2021 20:00:00 -1,4 -2,9 - - 2 1 - - ZW 1018,4 30 0 0,0
12.01.2021 19:00:00 0,0 -2,2 - - 8 4 - - ZW 1018,1 40 0 0,0
12.01.2021 18:00:00 -0,3 -2,5 - - 4 2 - - W 1018,2 40 0 0,0
12.01.2021 17:00:00 0,6 -1,8 - - 11 6 - - ZW 1017,8 40 0 0,0
12.01.2021 16:00:00 1,1 -1,6 - - 9 5 - - ZW 1017,5 40 0 0,0
12.01.2021 15:00:00 1,9 -1,1 - - 13 7 - - ZW 1017,0 40 36 0,0
12.01.2021 14:00:00 3,0 -0,7 - - 9 5 - - ZW 1016,6 40 60 0,0
12.01.2021 13:00:00 2,9 -1,4 - - 11 6 - - ZW 1016,5 45 54 0,0
12.01.2021 12:00:00 2,4 -1,7 - - 13 7 - - ZZW 1016,1 45 54 0,0
12.01.2021 11:00:00 1,3 -2,2 - - 5 3 - - ZW 1015,8 50 48 0,0
12.01.2021 10:00:00 0,0 -2,7 - - 13 7 - - ZW 1015,0 50 6 0,0
12.01.2021 09:00:00 -0,7 -3,0 3,7 5,4 0 0 - - N 1014,2 45 0 0,0
12.01.2021 08:00:00 -0,8 -2,9 - - 0 0 - - N 1013,2 55 0 0,0
12.01.2021 07:00:00 -1,6 -3,2 - - 0 0 - - N 1012,2 45 0 0,0
12.01.2021 06:00:00 -0,6 -2,3 - - 0 0 - - N 1011,5 55 0 0,0
12.01.2021 05:00:00 -0,7 -1,9 - - 0 0 - - N 1010,7 50 0 0,0
12.01.2021 04:00:00 -0,7 -1,2 - - 0 0 - - N 1010,3 30 0 0,0
12.01.2021 03:00:00 -1,2 -1,7 - - 0 0 - - N 1009,6 14 0 0,0
12.01.2021 02:00:00 -0,8 -1,2 - - 5 3 - - WZW 1008,9 12 0 0,0
12.01.2021 01:00:00 -0,2 -0,7 - - 4 2 - - W 1008,1 12 0 0,0
12.01.2021 00:00:00 1,2 0,6 - - 0 0 - - N 1007,6 45 - 0,0
11.01.2021 23:00:00 1,6 1,1 - - 2 1 - - NNO 1007,0 50 0 0,4
11.01.2021 22:00:00 1,7 1,1 - - 11 6 - - ONO 1006,3 4,7 0 0,8
11.01.2021 21:00:00 2,2 1,6 - - 15 8 - - ONO 1005,5 7 0 1,4
11.01.2021 20:00:00 2,9 2,4 - - 13 7 - - ONO 1004,5 3,4 0 2,4
11.01.2021 19:00:00 4,3 2,5 - - 22 12 - - ONO 1003,5 13 0 0,0
11.01.2021 18:00:00 8,6 5,7 - - 26 14 46 25 WZW 1002,0 75 0 0,0
11.01.2021 17:00:00 9,0 5,8 - - 24 13 61 33 W 1001,7 70 0 0,0
11.01.2021 16:00:00 9,3 5,8 - - 37 20 63 34 WZW 1001,5 65 0 0,0
11.01.2021 15:00:00 10,0 6,3 - - 41 22 70 38 W 1000,8 75 0 0,0
11.01.2021 14:00:00 9,9 7,5 - - 37 20 61 33 W 1001,3 8 0 0,0
11.01.2021 13:00:00 9,6 8,0 - - 39 21 65 35 WZW 1001,5 35 0 0,0
11.01.2021 12:00:00 9,0 8,0 - - 31 17 57 31 WZW 1002,0 3,2 0 0,2
11.01.2021 11:00:00 8,1 6,9 - - 34 18 52 28 WZW 1002,7 6 0 0,0
11.01.2021 10:00:00 7,9 6,2 - - 28 15 54 29 WZW 1003,4 7 0 0,0
11.01.2021 09:00:00 7,5 5,9 3,2 5,5 34 18 57 31 WZW 1004,2 35 0 0,0
11.01.2021 08:00:00 7,4 5,6 - - 26 14 - - WZW 1005,1 8 0 0,0
11.01.2021 07:00:00 7,5 5,1 - - 22 12 50 27 ZW 1006,3 40 0 0,0
11.01.2021 06:00:00 7,7 4,6 - - 29 16 52 28 WZW 1006,7 40 0 0,0
11.01.2021 05:00:00 7,4 5,7 - - 34 18 48 26 WZW 1007,2 9 0 0,0
11.01.2021 04:00:00 7,5 5,8 - - 34 18 46 25 WZW 1008,1 24 0 0,0
11.01.2021 03:00:00 6,9 5,8 - - 31 17 46 25 WZW 1008,9 8 0 0,0

tt = temperatuur
td = dauwpunt
tt -20cm = temperatuur -20cm
tt -100cm = temperatuur -100cm
ff = windsnelheid
fx = windstoten
dd = windrichting
ppp = luchtdruk
vv = zicht
sd = Zonneschijnduur
rr = neerslag

Weerstations in de omgeving